Location: Gleizolles
(44.4833°N, 6.7667°E)
Time: 16:49:02
(UTC+00:00)

Transit 2A - Pass Details

Date: 04 July 2024
Orbit: 591 x 960 km, 66.7° (Epoch: 16 July)

Event Time Altitude Azimuth Distance (km) Brightness Sun altitude
Rises 20:24:16 0° 327° (NNW) 3,570 11.4 -9.6°
Reaches altitude 10° 20:26:46 10° 327° (NNW) 2,655 10.3 -9.9°
Maximum altitude 20:33:04 88° 239° (WSW) 965 6.5 -10.6°
Enters shadow 20:38:40 14° 151° (SSE) 2,406 7.9 -11.3°
